Gunnison, CO

11:57 PM MST on February 24, 2018 (GMT -0700)
Gunnison County

Weather History for KGUC - April, 2012

Change the Weather History Date:

Saturday, April 7, 2012

  Actual Average Record
Temperature  
Mean Temperature 36 °F -  
Max Temperature 57 °F 48 °F 64 °F (2005)
Min Temperature 15 °F 21 °F 14 °F (1997)
Degree Days  
Heating Degree Days 29    
Moisture  
Dew Point 2 °F    
Average Humidity 31    
Maximum Humidity 58    
Minimum Humidity 10    
Precipitation  
Precipitation 0.00 in - - ()
Sea Level Pressure  
Sea Level Pressure 30.36 in    
Wind  
Wind Speed 5 mph (WSW)    
Max Wind Speed 15 mph    
Max Gust Speed 21 mph    
Visibility 10 miles    
Events      
Averages and records for this station are not official NWS values.
T = Trace of Precipitation, MM = Missing Value Source: NWS Daily Summary

Daily Weather History Graph

Daily Weather History Graph

Search for Another Location

Airport or City:

Trip Planner

Search our weather history database for the weather conditions in past years. The results will help you decide how hot, cold, wet, or windy it might be!

Date:

Astronomy

Apr. 07, 2012 Rise Set
Actual Time 6:42 AM MDT 7:37 PM MDT
Civil Twilight 6:15 AM MDT 8:04 PM MDT
Nautical Twilight 5:43 AM MDT 8:36 PM MDT
Astronomical Twilight 5:10 AM MDT 9:09 PM MDT
Moon 9:13 PM MDT (4/7) 6:57 AM MDT (4/7)
Length of Visible Light 13h 48m
Length of Day
12h 54m
Full, 99% of the Moon is Illuminated
Apr 7
Full
Apr 13
Last Quarter
Apr 21
New
Apr 29
First Quarter
May 5
Full

Hourly Weather History & Observations

Time (MDT) Temp. Windchill Dew Point Humidity Pressure Visibility Wind Dir Wind Speed Gust Speed Precip Events Conditions
12:15 AM 33.8 °F 25.8 °F 5.0 °F 30% 30.24 in 10.0 mi SW 10.4 mph - N/A   Clear
12:35 AM 32.0 °F 22.1 °F 3.2 °F 30% 30.25 in 10.0 mi SW 13.8 mph - N/A   Clear
1:15 AM 30.2 °F 26.7 °F 3.2 °F 32% 30.27 in 10.0 mi South 3.5 mph - N/A   Clear
1:35 AM 30.2 °F - 3.2 °F 32% 30.28 in 10.0 mi Calm Calm - N/A   Clear
1:55 AM 28.4 °F - 3.2 °F 34% 30.29 in 10.0 mi Calm Calm - N/A   Clear
2:15 AM 26.6 °F - 3.2 °F 37% 30.30 in 10.0 mi Calm Calm - N/A   Clear
2:35 AM 24.8 °F 19.1 °F 1.4 °F 36% 30.30 in 10.0 mi North 4.6 mph - N/A   Clear
2:55 AM 23.0 °F 15.8 °F 1.4 °F 39% 30.31 in 10.0 mi North 5.8 mph - N/A   Clear
3:15 AM 21.2 °F - 1.4 °F 42% 30.32 in 10.0 mi North - - N/A   Clear
3:35 AM 21.2 °F 13.6 °F 1.4 °F 42% 30.33 in 10.0 mi North 5.8 mph - N/A   Clear
3:55 AM 19.4 °F - 1.4 °F 46% 30.34 in 10.0 mi Calm Calm - N/A   Clear
4:15 AM 19.4 °F - 1.4 °F 46% 30.35 in 10.0 mi Calm Calm - N/A   Clear
4:35 AM 19.4 °F 12.8 °F 3.2 °F 49% 30.35 in 10.0 mi NNW 4.6 mph - N/A   Clear
4:55 AM 17.6 °F 10.7 °F 3.2 °F 53% 30.36 in 10.0 mi NNW 4.6 mph - N/A   Clear
5:15 AM 17.6 °F 9.3 °F 1.4 °F 49% 30.37 in 10.0 mi North 5.8 mph - N/A   Clear
5:35 AM 17.6 °F 8.2 °F 1.4 °F 49% 30.37 in 10.0 mi North 6.9 mph - N/A   Clear
5:55 AM 15.8 °F 7.2 °F 1.4 °F 53% 30.38 in 10.0 mi North 5.8 mph - N/A   Clear
6:15 AM 15.8 °F 10.2 °F 1.4 °F 53% 30.38 in 10.0 mi North 3.5 mph - N/A   Clear
6:35 AM 15.8 °F 8.6 °F 3.2 °F 58% 30.39 in 10.0 mi North 4.6 mph - N/A   Clear
6:55 AM 15.8 °F - 3.2 °F 58% 30.41 in 10.0 mi Calm Calm - N/A   Clear
7:15 AM 15.8 °F - 3.2 °F 58% 30.42 in 10.0 mi Calm Calm - N/A   Clear
7:35 AM 15.8 °F - 3.2 °F 58% 30.43 in 10.0 mi Calm Calm - N/A   Clear
7:55 AM 19.4 °F - 5.0 °F 54% 30.43 in 10.0 mi Calm Calm - N/A   Clear
8:15 AM 19.4 °F - 6.8 °F 58% 30.44 in 10.0 mi Calm Calm - N/A   Clear
8:35 AM 23.0 °F - 6.8 °F 50% 30.44 in 10.0 mi Calm Calm - N/A   Clear
8:55 AM 24.8 °F - 6.8 °F 46% 30.44 in 10.0 mi Calm Calm - N/A   Clear
9:15 AM 30.2 °F - 6.8 °F 37% 30.44 in 10.0 mi Calm Calm - N/A   Clear
9:35 AM 30.2 °F - 6.8 °F 37% 30.44 in 10.0 mi Calm Calm - N/A   Clear
9:55 AM 33.8 °F - 6.8 °F 32% 30.44 in 10.0 mi Calm Calm - N/A   Clear
10:15 AM 35.6 °F - 3.2 °F 26% 30.44 in 10.0 mi Calm Calm - N/A   Clear
10:35 AM 35.6 °F - 1.4 °F 24% 30.43 in 10.0 mi Calm Calm - N/A   Clear
10:55 AM 37.4 °F - 5.0 °F 26% 30.43 in 10.0 mi Calm Calm - N/A   Clear
11:15 AM 39.2 °F 35.0 °F 3.2 °F 22% 30.43 in 10.0 mi SW 5.8 mph - N/A   Clear
11:35 AM 41.0 °F 39.0 °F -0.4 °F 18% 30.42 in 10.0 mi SW 3.5 mph - N/A   Clear
11:55 AM 42.8 °F - -0.4 °F 16% 30.42 in 10.0 mi Calm Calm - N/A   Clear
12:15 PM 44.6 °F 42.2 °F -2.2 °F 14% 30.41 in 10.0 mi SSW 4.6 mph - N/A   Clear
12:35 PM 44.6 °F - -0.4 °F 15% 30.40 in 10.0 mi Calm Calm - N/A   Clear
12:55 PM 46.4 °F 43.5 °F -2.2 °F 13% 30.39 in 10.0 mi SE 5.8 mph - N/A   Clear
1:15 PM 48.2 °F - -2.2 °F 12% 30.39 in 10.0 mi SSE 3.5 mph - N/A   Clear
1:35 PM 50.0 °F - -2.2 °F 12% 30.38 in 10.0 mi SW 5.8 mph - N/A   Clear
1:55 PM 51.8 °F - -2.2 °F 11% 30.38 in 10.0 mi WSW 5.8 mph - N/A   Clear
2:15 PM 51.8 °F - -0.4 °F 12% 30.36 in 10.0 mi Calm Calm - N/A   Clear
2:35 PM 53.6 °F - -0.4 °F 11% 30.36 in 10.0 mi WSW 4.6 mph - N/A   Clear
2:55 PM 53.6 °F - -0.4 °F 11% 30.35 in 10.0 mi SSW 6.9 mph - N/A   Clear
3:15 PM 55.4 °F - 1.4 °F 11% 30.34 in 10.0 mi SSW 8.1 mph - N/A   Clear
3:35 PM 55.4 °F - 1.4 °F 11% 30.33 in 10.0 mi SW 9.2 mph 16.1 mph N/A   Clear
3:55 PM 55.4 °F - 1.4 °F 11% 30.32 in 10.0 mi SW 11.5 mph 20.7 mph N/A   Clear
4:15 PM 57.2 °F - 1.4 °F 10% 30.32 in 10.0 mi SSW 12.7 mph 18.4 mph N/A   Clear
4:35 PM 57.2 °F - 1.4 °F 10% 30.32 in 10.0 mi SW 10.4 mph - N/A   Clear
4:55 PM 57.2 °F - 3.2 °F 11% 30.31 in 10.0 mi WSW 15.0 mph 18.4 mph N/A   Clear
5:15 PM 57.2 °F - 3.2 °F 11% 30.32 in 10.0 mi WSW 5.8 mph - N/A   Clear
5:35 PM 57.2 °F - 3.2 °F 11% 30.31 in 10.0 mi SSW 5.8 mph - N/A   Clear
5:55 PM 57.2 °F - 1.4 °F 10% 30.31 in 10.0 mi SW 10.4 mph - N/A   Clear
6:15 PM 55.4 °F - 1.4 °F 11% 30.32 in 10.0 mi SW 12.7 mph 16.1 mph N/A   Clear
6:35 PM 55.4 °F - 1.4 °F 11% 30.32 in 10.0 mi SW 10.4 mph - N/A   Clear
6:55 PM 53.6 °F - -0.4 °F 11% 30.32 in 10.0 mi SW 11.5 mph - N/A   Clear
7:15 PM 53.6 °F - -0.4 °F 11% 30.32 in 10.0 mi WSW 5.8 mph - N/A   Clear
7:35 PM 51.8 °F - -0.4 °F 12% 30.33 in 10.0 mi Calm Calm - N/A   Clear
7:55 PM 51.8 °F - -2.2 °F 11% 30.34 in 10.0 mi NNW 4.6 mph - N/A   Clear
8:15 PM 50.0 °F - -0.4 °F 13% 30.35 in 10.0 mi NW 6.9 mph - N/A   Clear
8:35 PM 48.2 °F - -2.2 °F 12% 30.36 in 10.0 mi North 9.2 mph - N/A   Clear
8:55 PM 44.6 °F 40.2 °F -4.0 °F 13% 30.37 in 10.0 mi NNW 8.1 mph - N/A   Clear
9:35 PM 39.2 °F 35.9 °F -2.2 °F 17% 30.40 in 10.0 mi North 4.6 mph - N/A   Clear
9:55 PM 39.2 °F 33.6 °F -0.4 °F 19% 30.40 in 10.0 mi NNW 8.1 mph - N/A   Clear
10:15 PM 37.4 °F - -0.4 °F 20% 30.41 in 10.0 mi North - - N/A   Clear
10:35 PM 35.6 °F - 1.4 °F 24% 30.41 in 10.0 mi Calm Calm - N/A   Clear
10:55 PM 35.6 °F - 1.4 °F 24% 30.42 in 10.0 mi Calm Calm - N/A   Clear
11:15 PM 32.0 °F - -0.4 °F 25% 30.42 in 10.0 mi Calm Calm - N/A   Clear
11:35 PM 32.0 °F - 1.4 °F 27% 30.43 in 10.0 mi Calm Calm - N/A   Clear
11:55 PM 30.2 °F - 3.2 °F 32% 30.43 in 10.0 mi Calm Calm - N/A   Clear